Location: Observatoire
(46.1952°N, 5.3391°E)
Time: 22:54:39
(UTC+01:00)

A-11 Canister half - Pass Details

Date: 22 February 2026
Orbit: 1525 x 1683 km, 47.3° (Epoch: 9 March)

Event Time Altitude Azimuth Distance (km) Brightness Sun altitude
Rises 14:31:50 0° 204° (SSW) 4,769 12.8 29.5°
Reaches altitude 10° 14:35:20 10° 195° (SSW) 3,764 12.5 29.2°
Maximum altitude 14:43:26 33° 136° (SE) 2,373 10.5 28.5°
Drops below altitude 10° 14:51:23 10° 77° (ENE) 3,700 10.7 27.7°
Sets 14:54:46 0° 68° (ENE) 4,679 11.1 27.4°
